Regional Weather Roundup
Issued by NWS

Home | Current Version | Previous Version | Graphics & Text | Print | Product List | Glossary On
Versions: 1 2 3 4 5 6 7 8 9 10 11 12 13 14 15 16 17 18 19 20 21 22 23 24 25 26 27 28 29 30 31 32 33 34 35 36 37 38 39 40 41 42 43 44 45 46 47 48 49 50
000
ASUS43 KLOT 230212
RWRIL

ILLINOIS REGIONAL WEATHER ROUNDUP
NATIONAL WEATHER SERVICE CHICAGO/ROMEOVILLE IL
800 PM CST WED FEB 22 2017

NOTE: "FAIR" INDICATES FEW OR NO CLOUDS BELOW 12,000 FEET WITH NO
SIGNIFICANT WEATHER AND/OR OBSTRUCTIONS TO VISIBILITY.

* THESE STATIONS ARE NOT UNDER NWS QUALITY CONTROL. THEY ALSO MAY NOT
  REPORT WEATHER SUCH AS PRECIPITATION OR FOG.

ILZ001-002-007-009-015-016-024-230300-
NORTHWEST ILLINOIS

CITY           SKY/WX    TMP DP  RH WIND       PRES   REMARKS
MOLINE         CLEAR    N/A N/A N/A SW9       29.63R
STERLING*      CLEAR     58  54  86 VRB6      29.61R
SAVANNA*       CLEAR     60  50  69 W8        29.60R
$$

ILZ003-004-008-010-011-017-018-230300-
NORTH CENTRAL ILLINOIS

CITY           SKY/WX    TMP DP  RH WIND       PRES   REMARKS
ROCKFORD       CLEAR     58  51  78 S8        29.62R
FREEPORT*      CLEAR     56  51  84 SW14      29.60S
ROCHELLE*      CLEAR     55  52  90 S12       29.61S
DE KALB*       CLEAR     56  53  89 S15       29.62S
PERU*          CLEAR     57  52  83 SW16      29.64R
$$

ILZ005-006-012>014-019>023-230300-
NORTHEAST ILLINOIS

CITY           SKY/WX    TMP DP  RH WIND       PRES   REMARKS
CHICAGO-OHARE  CLEAR     63  54  72 S14G25    29.61R
CHICAGO-MIDWAY CLEAR     63  53  70 S16G24    29.62R
AURORA         CLEAR     60  53  77 S15       29.62S
LANSING*       CLEAR     58  55  91 S8        29.65R
JOLIET*        PTCLDY    62  56  82 SW8       29.65R
WAUKEGAN       PTCLDY    61  54  77 SW16      29.59R
DUPAGE AIRPORT CLEAR     60  53  77 S13       29.62R
KANKAKEE*      CLEAR     58  53  83 S8        29.67R
WHEELING       CLEAR     62  54  74 S15       29.61S
MORRIS*        PTCLDY    59  53  81 SW10      29.64R
ROMEOVILLE*    CLEAR     60  57  87 SW16G22   29.64R
NORTHERLY ISL    N/A     63  53  70 SW17        N/A
$$

LMZ740>746-230300-
SOUTHERN LAKE MICHIGAN

STATION/POSITION SKY/WX   TEMP    WIND        PRES    VSBY  WAVE
                          AIR SEA DIR/SP/G                  HT/PER
                          (F)     (DEG/KT/KT) (MB)    (MI)  (FT/S)
HARRISON CRIB              63     200/ 24/ 26   N/A
BURNHAM HARBOR             63     210/ 17       N/A
CALUMET HARBOR             62     200/ 12/ 17 1003.1R
BURNS HARBOR               60     180/ 15/ 20 1004.1F
MICHIGAN CITY              60     150/ 14/ 17   N/A
$$

ILZ025>027-034>036-040-047-049-050-058-095>099-230300-
WEST-CENTRAL ILLINOIS

CITY           SKY/WX    TMP DP  RH WIND       PRES   REMARKS
QUINCY         CLEAR     56  53  90 S8        29.67S
GALESBURG*     CLEAR     56  50  80 S6        29.66R
MACOMB*        CLEAR     59  53  81 SW14      29.69R
JACKSONVILLE*  CLEAR     53  53  98 S3        29.70R FOG
PITTSFIELD*    CLEAR     57  55  94 S5        29.70S
$$

ILZ028>032-037-038-041>044-048-051>054-059>061-230300-
CENTRAL ILLINOIS

CITY           SKY/WX    TMP DP  RH WIND       PRES   REMARKS
PONTIAC        CLEAR     58  56  92 S8        29.67R
BLOOMINGTON    CLEAR     57  54  89 SW10      29.68R
DECATUR        CLEAR     62  52  69 S14G22    29.69S
PEORIA         CLEAR     56  54  93 SW9       29.68R
LACON*         CLEAR     58  55  87 SW15G21   29.65R
LINCOLN*       CLEAR     58  57  96 SW3       29.69R FOG
SPRINGFIELD    CLEAR     60  55  83 SW7       29.69R
TAYLORVILLE    CLEAR     62  54  75 S15G22    29.69S
$$

ILZ033-039-045-046-055>057-062-063-230300-
EAST-CENTRAL ILLINOIS

CITY           SKY/WX    TMP DP  RH WIND       PRES   REMARKS
CHAMPAIGN      CLEAR     61  54  77 S16       29.69F
RANTOUL*       CLEAR     61  56  85 S12       29.68F
MATTOON        CLEAR     61  55  81 S10       29.71F
PARIS*         PTCLDY    60  55  85 S15       29.73F
$$

ILZ079-100>102-230300-
SOUTHWEST ILLINOIS

CITY           SKY/WX    TMP DP  RH WIND       PRES   REMARKS
ALTON          CLEAR     61  52  72 S13       29.70S
BELLEVILLE     PTCLDY    64  58  80 VRB6      29.71R
CAHOKIA*       PTCLDY    67  51  56 S6        29.71R
SPARTA*        CLOUDY    64  55  73 S10       29.75S
$$

ILZ064>066-069>071-074>076-080>082-084>086-088>090-092>094-230300-
SOUTH-CENTRAL ILLINOIS

CITY           SKY/WX    TMP DP  RH WIND       PRES   REMARKS
CARBONDALE     MOCLDY    62  57  83 S8        29.76F
CAIRO*         CLEAR     60  56  89 CALM      29.79F
EFFINGHAM*     CLEAR     64  55  75 SE9       29.74F
MARION         PTCLDY    59  59 100 S6        29.78F
MT. VERNON     CLOUDY    63  54  72 S9        29.75F
CENTRALIA*     CLOUDY    64  56  73 S14       29.73S
SALEM*         PTCLDY    66  53  63 S13       29.73F
METROPOLIS*    CLEAR     62  55  78 CALM      29.81S
$$

ILZ067-068-072-073-078-083-087-091-230300-
SOUTHEAST ILLINOIS

CITY           SKY/WX    TMP DP  RH WIND       PRES   REMARKS
LAWRENCEVILLE  PTCLDY    58  54  86 S9        29.78S
FLORA*         CLOUDY    63  55  77 S10       29.74F
FAIRFIELD*     PTCLDY    61  55  79 S5        29.75F
HARRISBURG*    MOCLDY    59  56  88 SE5       29.79F
ROBINSON*      PTCLDY    59  54  83 S9        29.77S
CARMI*         PTCLDY    55  53  95 S6        29.78S
$$

ABBREVIATIONS USED IN REMARKS
   TC - TEMPERATURE IN CELSIUS
  WCI - WIND CHILL INDEX
   HX - HEAT INDEX
  VSB - VISIBILITY
$$





USA.gov is the U.S. government's official web portal to all federal, state and local government web resources and services.